Regional Weather Roundup
Issued by NWS

Home | Current Version | Previous Version | Graphics & Text | Print | Product List | Glossary On
Versions: 1 2 3 4 5 6 7 8 9 10 11 12 13 14 15 16 17 18 19 20 21 22 23 24 25 26 27 28 29 30 31 32 33 34 35 36 37 38 39 40 41 42 43 44 45 46 47 48 49 50
000
ASUS43 KMPX 162110
RWRMN
WEATHER ROUNDUP FOR MINNESOTA
NATIONAL WEATHER SERVICE TWIN CITIES/CHANHASSEN MN
300 PM CST MON JAN 16 2017


NOTE: "FAIR" INDICATES FEW OR NO CLOUDS BELOW 12,000 FEET WITH NO
SIGNIFICANT WEATHER AND/OR OBSTRUCTIONS TO VISIBILITY. N/A MEANS
CURRENT SKY AND/OR WEATHER CONDITIONS ARE NOT AVAILABLE.

MNZ060>063-068>070-162200-
   Twin Cities Metro

CITY           SKY/WX    TMP DP  RH WIND       PRES   REMARKS
TWIN CITIES    CLOUDY    31  21  66 NE6       30.05F WCI  25
ST PAUL        CLOUDY    31  21  66 E5        30.07F WCI  26
CRYSTAL        CLOUDY    32  24  72 NE5       30.05F WCI  27
BLAINE         CLOUDY    34  23  64 E6        30.05S WCI  29
LAKEVILLE      CLOUDY    27  21  80 NE5       30.04S WCI  21
EDEN PRAIRIE   CLOUDY    31  22  69 NE7       30.03F HAZE    WCI  24
SOUTH ST PAUL  CLOUDY    32  21  64 E3        30.05F
LAKE ELMO      CLOUDY    32  23  69 E6        30.06F WCI  26
$$
MNZ001>005-007-008-013>017-022>024-027-028-162200-
   Northwest Minnesota

CITY           SKY/WX    TMP DP  RH WIND       PRES   REMARKS
BEMIDJI        SUNNY     29  20  67 SE5       30.00S WCI  24
HALLOCK        MOSUNNY   12   7  79 SE5       30.04R WCI   4
ROSEAU         CLOUDY    16  10  79 CALM      30.02S
WARROAD        CLOUDY    23  12  63 CALM      30.02S
THIEF RVR FALL CLOUDY    21  12  68 SW6       30.02F WCI  13
CROOKSTON      CLOUDY    16  10  79 SW6       30.04S WCI   7
FOSSTON        SUNNY     25  14  63 S9        30.01F WCI  15
DETROIT LAKES  CLOUDY    28  19  69 S6        30.02S WCI  22
MOORHEAD       SUNNY     18  10  73 SW3       30.06S
PARK RAPIDS    CLOUDY    29  19  66 CALM      30.00F
MAHNOMEN       FAIR      20  14  78 SW5       30.02S WCI  14
$$
MNZ006-009>011-018-025>026-162200-
   North Central Minnesota

CITY           SKY/WX    TMP DP  RH WIND       PRES   REMARKS
BAUDETTE       CLOUDY    26  13  57 E5        29.99F WCI  20
FLAG ISLAND    CLOUDY    16   9  73 SE6       30.01S WCI   7
INTL FALLS     SUNNY     27  16  63 SE6       30.02S WCI  20
WASKISH        SUNNY     25  16  68 CALM      30.01F
BIG FORK       SUNNY     32  19  59 CALM      30.01F
LONGVILLE      CLOUDY    36  21  55 CALM      30.02S
GRAND RAPIDS   CLOUDY    33  20  58 E3        30.05S
CRANE LAKE     SUNNY     32  16  51 CALM      30.05S
ORR            SUNNY     34  16  47 CALM      29.99F
COOK           SUNNY     36  23  60 CALM      30.02S
WALKER         FAIR      29  19  65 E3        30.01S
$$
MNZ012-019>021-037-162200-
   Northeast Minnesota

CITY           SKY/WX    TMP DP  RH WIND       PRES   REMARKS
DULUTH         SUNNY     33  19  56 W7        30.03F WCI  27
ELY            SUNNY     36  19  51 S3        30.02S
HIBBING        CLOUDY    28  18  66 CALM      30.03F
EVELETH        CLOUDY    32  17  52 CALM      30.05S
DULUTH HARBOR  SUNNY     34  23  64 CALM      30.08F
TWO HARBORS    SUNNY     36  25  64 SW3       30.03F
SILVER BAY     SUNNY     36  25  64 SW3       30.03S
GRAND MARAIS     N/A     34  27  75 SW6       30.08R WCI  29
G MARAIS ARPRT SUNNY     36  19  51 CALM      30.03R
$$
MNZ029>031-032-039>041-046>048-054>057-064-162200-
   West Central Minnesota

CITY           SKY/WX    TMP DP  RH WIND       PRES   REMARKS
FERGUS FALLS   CLOUDY    21  16  79 CALM      30.06F
WHEATON        CLOUDY    27  21  80 NE3       30.06F
MORRIS         CLOUDY    28  21  74 CALM      30.03S
ALEXANDRIA     CLOUDY    32  20  61 CALM      30.02F
ELBOW LAKE     FAIR      24  18  78 E3        30.03F HAZE
WADENA         CLOUDY    27  18  69 CALM      30.01F
GLENWOOD       CLOUDY    32  21  64 CALM      30.03R
APPLETON       SUNNY     21  18  86 N3        30.04S
ORTONVILLE     CLOUDY    27  18  69 CALM      30.03F
MADISON        CLOUDY    27  21  80 CALM      30.03S
WILLMAR        CLOUDY    30  28  93 CALM      30.03F
$$
MNZ033>034-036-042>043-049>051-058-059-162200-
   Central Minnesota

CITY           SKY/WX    TMP DP  RH WIND       PRES   REMARKS
ST CLOUD       CLOUDY    28  28 100 CALM      30.04F FOG
SAUK CENTRE    FOG       27  26  99 SE3       30.03F VSB<1/4
PAYNESVILLE    CLOUDY    31  29  96 CALM      30.04S FOG
AITKIN         SUNNY     34  18  51 CALM      30.02F
PINE RIVER     SUNNY     28  19  69 CALM      30.05F
BRAINERD       CLOUDY    30  18  60 CALM      30.03F
STAPLES        CLOUDY    27  18  69 CALM      30.02F
LONG PRAIRIE   FAIR      30  19  64 CALM      30.03S
LITTLE FALLS   CLOUDY    32  19  59 CALM      30.04F
LITCHFIELD     CLOUDY    32  28  86 E3        30.04S
BUFFALO        CLOUDY    31  23  71 E5        30.06S WCI  27
MAPLE LAKE     CLOUDY    31  24  74 NE5       30.05S WCI  26
HUTCHINSON     CLOUDY    32  29  90 NE8       30.03F WCI  25
$$
MNZ037-044-045-052-053-162200-
   East Central Minnesota

CITY           SKY/WX    TMP DP  RH WIND       PRES   REMARKS
PRINCETON      CLOUDY    30  19  64 CALM      30.06S
MORA           CLOUDY    28  19  69 CALM      30.07F
CAMBRIDGE      CLOUDY    30  19  64 CALM      30.05F
RUSH CITY      CLOUDY    28  18  64 CALM      30.07S
MOOSE LAKE     CLOUDY    32  19  59 CALM      30.04S
HINCKLEY       FAIR      28  21  74 SW3       30.06F
CLOQUET        SUNNY     32  16  51 SW3       30.03F
MCGREGOR       CLOUDY    36  21  55 CALM      30.04F
$$
MNZ071>073-080-081-089-090-097-098-162200-
   Southwest Minnesota

CITY           SKY/WX    TMP DP  RH WIND       PRES   REMARKS
MONTEVIDEO     CLOUDY    30  21  69 CALM      30.04F
GRANITE FALLS  CLOUDY    33  27  78 CALM      30.03F
CANBY            N/A     32  23  71 CALM      30.02S
MARSHALL       CLOUDY    30  24  78 E3        30.01F
REDWOOD FALLS  CLOUDY    30  26  85 VRB5      30.02F FOG     WCI  25
OLIVIA         CLOUDY    32  28  86 E5        30.02S FOG     WCI  27
PIPESTONE      CLOUDY    30  27  86 NE6       29.96S WCI  24
WINDOM         MIX PCPN  30  28  93 NE7       29.98F WCI  23
WORTHINGTON    LGT SNOW  30  28  93 NE12      29.97S FOG     WCI  21
JACKSON        DRZL/FOG  30  30 100 NE12      29.97F VSB 1/2 WCI  21
TRACY          CLOUDY    30  27  88 NE7       30.00S WCI  23
SLAYTON        CLOUDY    30  26  85 NE7       29.98F WCI  23
$$
MNZ065>067-074>077-082>085-091>093-162200-
   South Central Minnesota

CITY           SKY/WX    TMP DP  RH WIND       PRES   REMARKS
MANKATO        LGT SNOW  31  29  92 NE8       30.01F FOG     WCI  23
NEW ULM        CLOUDY    28  28 100 NE5       30.01S FOG     WCI  23
ST JAMES       MIX PCPN  30  30 100 NE6       30.01F WCI  24
FAIRMONT       MIX PCPN  30  28  93 NE9       29.98F FOG     WCI  22
GLENCOE        CLOUDY    31  30  95 NE3       30.03S FOG
FARIBAULT      MIX PCPN  28  25  86 N6        30.03S WCI  22
OWATONNA       LGT RAIN  30  27  86 E9        30.01S WCI  22
WASECA         MIX PCPN  32  30  93 NE7       30.01F WCI  26
ALBERT LEA     MIX PCPN  32  32 100 NE7       29.98F WCI  26
$$
MNZ078>079-086>088-094>096-162200-
   Southeast Minnesota

CITY           SKY/WX    TMP DP  RH WIND       PRES   REMARKS
ROCHESTER      FRZ RAIN  30  29  96 NE10      30.00F FOG     WCI  21
RED WING       CLOUDY    30  19  64 SE5       30.05F WCI  25
STANTON        CLOUDY    31  24  76 NE7       30.02F WCI  24
DODGE CENTER   MIX PCPN  28  28 100 NE9       30.00F WCI  20
WINONA         MIX PCPN  30  27  86 CALM      30.07S
AUSTIN         MIX PCPN  30  28  93 NE9       29.98F WCI  22
PRESTON        LGT RAIN  30  29  95 NE7       30.00S WCI  23
$$
ABBREVIATIONS USED IN REMARKS
   TC - TEMPERATURES IN CELSIUS
  WCI - WIND CHILL INDEX
   HX - HEAT INDEX
  VSB - VISIBILITY
$$




USA.gov is the U.S. government's official web portal to all federal, state and local government web resources and services.